N6GIW Weather Reports


time (UTC)temp
C
wind
direction
speed
KPH
gust
KPH
rain 1hr
cm
rain 24hr
cm
rain mn
cm
humidity
%
barometer
mb
20260507195503 30 30 9.7 19.3 0.00 0.00 0.00 14 1023.8
20260507195003 30 80 8.0 14.5 0.00 0.00 0.00 14 1024.0
20260507194503 30 72 4.8 14.5 0.00 0.00 0.00 14 1024.0
20260507193503 30 97 4.8 14.5 0.00 0.00 0.00 15 1024.0
20260507193003 29 14 3.2 12.9 0.00 0.00 0.00 15 1024.1
20260507191003 28 44 4.8 16.1 0.00 0.00 0.00 15 1024.2
20260507190503 29 333 4.8 12.9 0.00 0.00 0.00 15 1024.4
20260507190004 28 75 3.2 14.5 0.00 0.00 0.00 15 1024.5
20260507185502 28 24 6.4 14.5 0.00 0.00 0.00 16 1024.5
20260507185003 28 34 3.2 12.9 0.00 0.00 0.00 17 1024.5
20260507184502 28 286 8.0 16.1 0.00 0.00 0.00 16 1024.5
20260507184002 28 344 6.4 16.1 0.00 0.00 0.00 17 1024.5
20260507183502 28 275 3.2 12.9 0.00 0.00 0.00 17 1024.5
20260507182503 28 14 9.7 19.3 0.00 0.00 0.00 17 1024.6
20260507182003 28 5 12.9 19.3 0.00 0.00 0.00 17 1024.6
20260507181503 28 52 4.8 12.9 0.00 0.00 0.00 18 1024.6
20260507181003 28 355 4.8 16.1 0.00 0.00 0.00 18 1024.6
20260507180503 28 31 8.0 19.3 0.00 0.00 0.00 18 1024.7
20260507180003 28 26 4.8 14.5 0.00 0.00 0.00 18 1024.6
20260507175503 27 51 6.4 22.5 0.00 0.00 0.00 18 1024.7
20260507175003 28 29 6.4 19.3 0.00 0.00 0.00 18 1024.8
20260507174503 28 16 11.3 19.3 0.00 0.00 0.00 18 1024.7
20260507174003 27 7 9.7 19.3 0.00 0.00 0.00 18 1024.9
20260507173503 27 45 9.7 19.3 0.00 0.00 0.00 19 1025.0
20260507173002 27 22 14.5 19.3 0.00 0.00 0.00 19 1025.0
20260507172503 27 40 3.2 16.1 0.00 0.00 0.00 19 1024.9
20260507172003 27 43 6.4 19.3 0.00 0.00 0.00 19 1024.7
20260507171504 27 323 6.4 19.3 0.00 0.00 0.00 18 1024.8
20260507171003 27 338 9.7 14.5 0.00 0.00 0.00 19 1024.8
20260507170502 27 336 6.4 19.3 0.00 0.00 0.00 19 1024.7
20260507164503 27 335 9.7 14.5 0.00 0.00 0.00 19 1024.8
20260507164003 27 5 8.0 16.1 0.00 0.00 0.00 19 1024.9
20260507163504 27 18 4.8 19.3 0.00 0.00 0.00 19 1024.9
20260507163003 26 331 9.7 19.3 0.00 0.00 0.00 19 1024.9
20260507162503 27 343 4.8 16.1 0.00 0.00 0.00 19 1024.8
20260507162003 27 342 8.0 24.1 0.00 0.00 0.00 19 1024.7
20260507161503 26 344 11.3 19.3 0.00 0.00 0.00 19 1024.8
20260507161003 26 19 14.5 19.3 0.00 0.00 0.00 19 1024.8
20260507160503 26 9 9.7 19.3 0.00 0.00 0.00 20 1024.8
20260507160003 26 9 14.5 20.9 0.00 0.00 0.00 20 1024.8
20260507155503 26 320 9.7 16.1 0.00 0.00 0.00 20 1024.8
20260507155003 26 349 9.7 19.3 0.00 0.00 0.00 20 1024.7
20260507154004 25 24 4.8 14.5 0.00 0.00 0.00 23 1024.6
20260507153504 24 25 4.8 9.7 0.00 0.00 0.00 25 1024.7
20260507153003 23 10 4.8 8.0 0.00 0.00 0.00 26 1024.8
20260507152503 23 16 3.2 8.0 0.00 0.00 0.00 26 1024.9
20260507152003 23 38 3.2 8.0 0.00 0.00 0.00 27 1024.9
20260507151503 22 20 3.2 9.7 0.00 0.00 0.00 27 1024.8
20260507151003 22 22 3.2 4.8 0.00 0.00 0.00 27 1024.9
20260507150503 22 19 1.6 4.8 0.00 0.00 0.00 28 1024.9
20260507150003 21 38 1.6 4.8 0.00 0.00 0.00 28 1024.9
20260507145504 21 30 1.6 4.8 0.00 0.00 0.00 28 1024.9
20260507145003 21 17 1.6 4.8 0.00 0.00 0.00 28 1025.0
20260507144503 21 28 0.0 3.2 0.00 0.00 0.00 27 1025.0
20260507144003 22 36 1.6 4.8 0.00 0.00 0.00 27 1025.0
20260507143503 22 42 3.2 4.8 0.00 0.00 0.00 26 1025.0
20260507143003 22 3 1.6 4.8 0.00 0.00 0.00 26 1025.0
20260507142504 22 249 0.0 0.0 0.00 0.00 0.00 26 1024.6
20260507142003 22 248 0.0 1.6 0.00 0.00 0.00 26 1024.6
20260507141502 21 248 0.0 0.0 0.00 0.00 0.00 27 1024.6
20260507140502 20 248 1.6 3.2 0.00 0.00 0.00 29 1024.5
20260507140004 19 243 0.0 1.6 0.00 0.00 0.00 29 1024.5
20260507135503 18 242 0.0 3.2 0.00 0.00 0.00 30 1024.5
20260507135003 18 243 1.6 3.2 0.00 0.00 0.00 31 1024.5
20260507134504 17 242 0.0 0.0 0.00 0.00 0.00 32 1024.5
20260507134002 17 244 0.0 0.0 0.00 0.00 0.00 33 1024.5
20260507133503 16 252 0.0 0.0 0.00 0.00 0.00 36 1024.5
20260507133004 15 251 0.0 0.0 0.00 0.00 0.00 36 1024.4
20260507132503 15 251 0.0 0.0 0.00 0.00 0.00 36 1024.2
20260507131002 15 251 0.0 0.0 0.00 0.00 0.00 35 1024.2
20260507130503 15 251 0.0 0.0 0.00 0.00 0.00 35 1024.0
20260507130004 15 251 0.0 0.0 0.00 0.00 0.00 35 1023.9
20260507125503 15 251 0.0 0.0 0.00 0.00 0.00 34 1024.0
20260507125004 15 251 0.0 0.0 0.00 0.00 0.00 34 1024.0
20260507124503 16 251 0.0 0.0 0.00 0.00 0.00 34 1024.0
20260507124003 16 250 0.0 0.0 0.00 0.00 0.00 35 1024.0
20260507123503 15 250 0.0 0.0 0.00 0.00 0.00 35 1024.0
20260507123004 15 250 0.0 0.0 0.00 0.00 0.00 35 1023.9
20260507122503 15 252 0.0 0.0 0.00 0.00 0.00 35 1023.9
20260507122003 16 253 0.0 0.0 0.00 0.00 0.00 34 1024.0
20260507121503 16 257 0.0 0.0 0.00 0.00 0.00 35 1024.0
20260507121003 16 257 0.0 0.0 0.00 0.00 0.00 34 1024.0
20260507120503 16 257 0.0 0.0 0.00 0.00 0.00 34 1024.1
20260507120002 16 257 0.0 0.0 0.00 0.00 0.00 34 1024.1
20260507115503 16 257 0.0 0.0 0.00 0.00 0.00 36 1024.1
20260507115004 15 225 0.0 0.0 0.00 0.00 0.00 35 1024.1
20260507114003 15 224 0.0 0.0 0.00 0.00 0.00 35 1024.1
20260507113004 16 224 0.0 0.0 0.00 0.00 0.00 34 1024.3
20260507112503 16 224 0.0 0.0 0.00 0.00 0.00 34 1024.0
20260507112003 16 224 0.0 0.0 0.00 0.00 0.00 34 1024.0
20260507111503 16 224 0.0 0.0 0.00 0.00 0.00 35 1024.0
20260507110503 15 224 0.0 0.0 0.00 0.00 0.00 34 1024.0
20260507110003 15 224 0.0 0.0 0.00 0.00 0.00 35 1023.9
20260507105502 15 224 0.0 0.0 0.00 0.00 0.00 35 1023.9
20260507105003 15 224 0.0 0.0 0.00 0.00 0.00 35 1024.0
20260507104003 15 246 0.0 0.0 0.00 0.00 0.00 35 1024.0
20260507103503 15 246 0.0 0.0 0.00 0.00 0.00 35 1024.1
20260507103003 15 267 0.0 0.0 0.00 0.00 0.00 34 1024.0
20260507102503 15 268 0.0 0.0 0.00 0.00 0.00 34 1024.0
20260507102003 15 278 0.0 0.0 0.00 0.00 0.00 34 1023.9
20260507101503 15 281 0.0 0.0 0.00 0.00 0.00 34 1024.0
20260507101003 15 284 0.0 0.0 0.00 0.00 0.00 35 1024.0
20260507100503 15 288 0.0 0.0 0.00 0.00 0.00 36 1024.0
20260507100005 14 290 0.0 0.0 0.00 0.00 0.00 36 1024.1
20260507095503 14 240 0.0 0.0 0.00 0.00 0.00 36 1024.1
20260507095004 14 240 0.0 0.0 0.00 0.00 0.00 35 1024.1
20260507094503 14 240 0.0 0.0 0.00 0.00 0.00 35 1024.3
20260507093503 15 240 0.0 0.0 0.00 0.00 0.00 35 1024.2
20260507093003 15 242 0.0 0.0 0.00 0.00 0.00 34 1024.3
20260507092003 16 245 0.0 0.0 0.00 0.00 0.00 33 1024.1
20260507091503 16 246 0.0 0.0 0.00 0.00 0.00 33 1024.2
20260507091003 16 246 0.0 0.0 0.00 0.00 0.00 33 1024.3
20260507090503 16 246 0.0 0.0 0.00 0.00 0.00 33 1024.2
20260507090005 16 246 0.0 0.0 0.00 0.00 0.00 33 1024.3
20260507085503 16 246 0.0 0.0 0.00 0.00 0.00 34 1024.3
20260507085003 16 246 0.0 0.0 0.00 0.00 0.00 33 1024.3
20260507084503 16 242 0.0 0.0 0.00 0.00 0.00 34 1024.3
20260507084004 16 238 0.0 0.0 0.00 0.00 0.00 34 1024.3
20260507083503 16 215 0.0 0.0 0.00 0.00 0.00 34 1024.3
20260507083004 16 232 0.0 0.0 0.00 0.00 0.00 34 1024.3
20260507082003 15 247 0.0 0.0 0.00 0.00 0.00 34 1024.4
20260507081503 16 248 0.0 0.0 0.00 0.00 0.00 34 1024.4
20260507081003 16 239 0.0 0.0 0.00 0.00 0.00 34 1024.4
20260507080502 16 245 0.0 0.0 0.00 0.00 0.00 34 1024.5
20260507080004 16 232 0.0 0.0 0.00 0.00 0.00 34 1024.5
20260507075503 16 239 0.0 0.0 0.00 0.00 0.00 34 1024.4
20260507075003 16 239 0.0 0.0 0.00 0.00 0.00 33 1024.5
20260507074003 16 247 0.0 0.0 0.00 0.00 0.00 33 1024.4
20260507073503 16 239 0.0 0.0 0.00 0.00 0.00 34 1024.6
20260507073003 16 233 0.0 0.0 0.00 0.00 0.00 33 1024.6
20260507072503 16 243 0.0 0.0 0.00 0.00 0.00 33 1024.5
20260507072003 16 240 0.0 0.0 0.00 0.00 0.00 33 1024.6
20260507071003 16 241 0.0 0.0 0.00 0.00 0.00 32 1024.6
20260507070503 17 240 0.0 0.0 0.00 0.00 0.00 32 1024.6
20260507064503 17 229 0.0 0.0 0.00 0.00 0.00 31 1024.5
20260507064003 17 232 0.0 0.0 0.00 0.00 0.00 31 1024.6
20260507063503 17 238 0.0 0.0 0.00 0.00 0.00 31 1024.6
20260507063004 17 240 0.0 0.0 0.00 0.00 0.00 31 1024.7
20260507062504 17 228 0.0 0.0 0.00 0.00 0.00 31 1024.4
20260507062003 17 231 0.0 0.0 0.00 0.00 0.00 32 1024.4
20260507061503 17 233 0.0 0.0 0.00 0.00 0.00 34 1024.4
20260507061003 17 234 0.0 0.0 0.00 0.00 0.00 33 1024.3
20260507060503 17 237 0.0 0.0 0.00 0.00 0.00 31 1024.3
20260507055503 17 231 0.0 0.0 0.00 0.00 0.00 31 1024.3
20260507055003 17 233 0.0 0.0 0.00 0.00 0.00 32 1024.3
20260507054504 17 236 0.0 0.0 0.00 0.00 0.00 32 1024.3
20260507054004 18 236 0.0 0.0 0.00 0.00 0.00 32 1024.3
20260507053503 18 237 0.0 0.0 0.00 0.00 0.00 33 1024.3
20260507052502 18 231 0.0 0.0 0.00 0.00 0.00 36 1024.3
20260507052003 18 232 0.0 0.0 0.00 0.00 0.00 37 1024.4
20260507051502 18 231 0.0 0.0 0.00 0.00 0.00 37 1024.4
20260507051002 19 228 0.0 0.0 0.00 0.00 0.00 38 1024.4
20260507050503 19 234 0.0 0.0 0.00 0.00 0.00 38 1024.3
20260507050003 19 229 0.0 0.0 0.00 0.00 0.00 38 1024.4
20260507045503 19 235 0.0 0.0 0.00 0.00 0.00 39 1024.3
20260507045004 19 236 0.0 0.0 0.00 0.00 0.00 38 1024.3
20260507044503 19 224 0.0 0.0 0.00 0.00 0.00 38 1024.4
20260507044004 19 227 0.0 0.0 0.00 0.00 0.00 38 1024.3
20260507043504 19 221 0.0 0.0 0.00 0.00 0.00 38 1024.4
20260507043004 19 227 0.0 0.0 0.00 0.00 0.00 38 1024.4
20260507042503 20 234 0.0 0.0 0.00 0.00 0.00 38 1024.1
20260507042004 20 232 0.0 0.0 0.00 0.00 0.00 38 1024.1
20260507041502 20 227 0.0 0.0 0.00 0.00 0.00 38 1024.1
20260507041003 20 233 0.0 0.0 0.00 0.00 0.00 38 1024.0
20260507035503 20 220 0.0 0.0 0.00 0.00 0.00 36 1024.0
20260507035004 20 220 0.0 0.0 0.00 0.00 0.00 36 1023.9
20260507034505 20 235 0.0 0.0 0.00 0.00 0.00 36 1023.9
20260507033502 20 233 0.0 0.0 0.00 0.00 0.00 36 1023.8
20260507033003 20 221 0.0 0.0 0.00 0.00 0.00 35 1023.7
20260507032517 19 219 0.0 0.0 0.00 0.00 0.00 33 1023.7
20260507032035 19 240 0.0 0.0 0.00 0.00 0.00 31 1023.6
20260507031504 20 34 0.0 0.0 0.00 0.00 0.00 30 1023.5
20260507031003 20 34 0.0 0.0 0.00 0.00 0.00 25 1023.5
20260507030503 21 34 0.0 0.0 0.00 0.00 0.00 25 1023.5
20260507030004 21 34 0.0 0.0 0.00 0.00 0.00 25 1023.4
20260507025503 21 34 0.0 0.0 0.00 0.00 0.00 24 1023.4
20260507025003 22 34 0.0 0.0 0.00 0.00 0.00 24 1023.3
20260507024503 22 34 0.0 0.0 0.00 0.00 0.00 24 1023.3
20260507024003 22 35 0.0 0.0 0.00 0.00 0.00 23 1023.2
20260507023503 23 35 0.0 0.0 0.00 0.00 0.00 23 1023.2
20260507023003 23 36 0.0 0.0 0.00 0.00 0.00 23 1023.2
20260507022503 23 32 0.0 0.0 0.00 0.00 0.00 23 1023.1
20260507022003 24 34 1.6 4.8 0.00 0.00 0.00 23 1023.1
20260507021503 24 26 3.2 9.7 0.00 0.00 0.00 22 1023.2
20260507021003 24 42 4.8 11.3 0.00 0.00 0.00 22 1023.1
20260507020503 25 28 4.8 11.3 0.00 0.00 0.00 21 1023.1
20260507020003 25 26 8.0 12.9 0.00 0.00 0.00 20 1023.2
20260507015503 25 358 4.8 9.7 0.00 0.00 0.00 20 1023.2
20260507015003 25 4 4.8 11.3 0.00 0.00 0.00 20 1023.1
20260507014503 25 39 4.8 12.9 0.00 0.00 0.00 20 1023.1
20260507014003 25 30 8.0 12.9 0.00 0.00 0.00 20 1023.1
20260507013503 25 14 3.2 4.8 0.00 0.00 0.00 21 1023.2
20260507013003 25 324 8.0 14.5 0.00 0.00 0.00 21 1023.2
20260507012503 25 320 8.0 16.1 0.00 0.00 0.00 22 1023.0
20260507012003 25 20 8.0 16.1 0.00 0.00 0.00 22 1023.0
20260507010502 25 44 4.8 11.3 0.00 0.00 0.00 23 1023.0
20260507010004 25 19 11.3 16.1 0.00 0.00 0.00 22 1022.9
20260507005503 26 45 6.4 16.1 0.00 0.00 0.00 23 1023.0
20260507005003 26 357 4.8 8.0 0.00 0.00 0.00 22 1023.1
20260507004003 25 19 8.0 19.3 0.00 0.00 0.00 22 1023.0
20260507003504 26 6 8.0 19.3 0.00 0.00 0.00 22 1022.9
20260507003004 25 17 9.7 16.1 0.00 0.00 0.00 21 1023.0
20260507002503 26 32 9.7 16.1 0.00 0.00 0.00 21 1023.0
20260507002003 26 37 8.0 22.5 0.00 0.00 0.00 21 1022.9
20260507001503 26 35 8.0 22.5 0.00 0.00 0.00 20 1022.8
20260507001003 25 46 4.8 19.3 0.00 0.00 0.00 21 1023.0
20260507000505 26 1 14.5 22.5 0.00 0.00 0.00 22 1022.9
20260507000004 26 19 8.0 20.9 0.00 0.00 0.00 21 1022.9
20260506234503 26 63 6.4 14.5 0.00 0.00 0.00 21 1022.8
20260506233503 26 83 4.8 19.3 0.00 0.00 0.00 21 1022.9
20260506233003 26 37 4.8 16.1 0.00 0.00 0.00 21 1023.0
20260506232504 26 67 4.8 22.5 0.00 0.00 0.00 22 1022.9
20260506231503 26 33 14.5 24.1 0.00 0.00 0.00 22 1022.9
20260506231003 26 33 9.7 20.9 0.00 0.00 0.00 21 1022.9
20260506230003 26 343 4.8 12.9 0.00 0.00 0.00 23 1022.9
20260506225503 26 18 6.4 12.9 0.00 0.00 0.00 23 1023.0
20260506225003 26 45 8.0 19.3 0.00 0.00 0.00 22 1023.0
20260506224503 26 24 9.7 19.3 0.00 0.00 0.00 22 1023.1
20260506224003 26 39 8.0 16.1 0.00 0.00 0.00 22 1023.0
20260506223504 26 16 11.3 19.3 0.00 0.00 0.00 23 1023.1
20260506223003 26 43 11.3 20.9 0.00 0.00 0.00 23 1023.2
20260506222002 26 22 9.7 22.5 0.00 0.00 0.00 25 1023.4
20260506221504 26 27 11.3 25.7 0.00 0.00 0.00 24 1023.4
20260506221003 25 268 3.2 14.5 0.00 0.00 0.00 25 1023.5
20260506220503 26 338 11.3 19.3 0.00 0.00 0.00 25 1023.6
20260506220003 26 67 8.0 16.1 0.00 0.00 0.00 25 1023.7
20260506215504 25 30 11.3 19.3 0.00 0.00 0.00 25 1023.8
20260506214503 25 344 8.0 16.1 0.00 0.00 0.00 25 1024.0
20260506214003 25 60 4.8 16.1 0.00 0.00 0.00 25 1024.0
20260506213503 25 35 8.0 16.1 0.00 0.00 0.00 25 1024.1
20260506213004 26 344 4.8 14.5 0.00 0.00 0.00 25 1024.1
20260506212504 25 49 8.0 61.2 0.00 0.00 0.00 25 1023.8
20260506212003 25 307 8.0 19.3 0.00 0.00 0.00 26 1023.9
20260506211503 25 21 6.4 12.9 0.00 0.00 0.00 26 1024.0
20260506211003 25 38 6.4 19.3 0.00 0.00 0.00 26 1024.1
20260506210503 25 352 4.8 19.3 0.00 0.00 0.00 26 1024.0
20260506210003 25 49 8.0 14.5 0.00 0.00 0.00 26 1024.0
20260506205503 25 103 4.8 11.3 0.00 0.00 0.00 26 1024.1
20260506205005 25 103 6.4 12.9 0.00 0.00 0.00 27 1024.2
20260506204504 25 75 3.2 11.3 0.00 0.00 0.00 27 1024.2
20260506203503 24 31 1.6 8.0 0.00 0.00 0.00 27 1024.4
20260506203003 24 60 4.8 16.1 0.00 0.00 0.00 28 1024.4
20260506202503 23 65 4.8 14.5 0.00 0.00 0.00 28 1024.2
20260506202003 23 92 3.2 19.3 0.00 0.00 0.00 28 1024.4
20260506201504 23 14 9.7 20.9 0.00 0.00 0.00 28 1024.5
20260506201004 23 9 11.3 19.3 0.00 0.00 0.00 29 1024.5
20260506200503 23 305 9.7 19.3 0.00 0.00 0.00 28 1024.6
20260506200003 23 336 16.1 22.5 0.00 0.00 0.00 28 1024.6